DMSP 5D-2 F13 DEB, 42297

Orbit data source: Space-Track

DMSP 5D-2 F13 DEB, 42297 is space debris in SSO originally from a launch on Fri, 24 Mar 1995 UTC launched from the Air Force Western Test Range (AFWTR). Debris objects in space refer to the collection of defunct objects orbiting the Earth. Examples of debris include non-operational satellites, rocket bodies, and fragments generated from explosions, collisions, or faulty payload assembly.

Loading next visibility...
Identifier
42297, 1995-015HP
Orbit
SSO
Country
Flag of USUS
Related business
Manufacturer
Unknown
Mission
Spacecraft
Bus & Motor
Unknown
Mass
Unknown
Launch date (UTC)
1995-03-24 (31 years ago)
Launch vehicle
Unknown
Launch site
Air Force Western Test Range (AFWTR)
Object type
Payload
Rocket body
Debris
Shape & HBR
Unknown shape, 0.1 m
Radar Cross Section
Small (<0.1 m²)

Expand to show TLE details & history
Last TLE update: 17 hours ago

TLE from 17 hours ago
0 DMSP 5D-2 F13 DEB
1 42297U 95015HP  26235.46823913  .00007232  00000-0  19826-2 0  9990
2 42297  98.8596 245.4448 0029005  98.4830 261.9650 14.47167085565570
Epoch: 2026-08-23T11:14Z
TLE epoch observation values (Epoch: 2026-08-23T11:14:15.860Z)
Latitude
-0.00006°
Longitude
105.11486°
Altitude
740.806 km
Speed
7.483 km/s
True Right ascension
16h 21m 46s
True Declination
0° 00' 00"
Sunlit
Object was in daylight at epoch
Visualization orbit readout
Latitude
Unknown
Longitude
Unknown
Altitude
Unknown
Speed
Unknown
Apparent Right ascension
Unknown
Apparent Declination
Unknown
Sunlit
N/A
Visualization observer readout
Local Sidereal Time
19:32:20
Azimuth
Unknown
Elevation
Unknown
Doppler factor
Unknown
Orbital elements
Apogee altitude
752.669 km
Perigee altitude
711.423 km
Semi-major axis
7,110.183 km
Eccentricity
0.0029
Inclination
98.8596°
RAAN
245.4448°
Arg. of periapsis
98.483°
True anomaly
261.63606°
Mean anomaly
261.965°
Eccentric anomaly
261.80051°
Mean motion
3.62011 °/min
Orbital period
99.44 mins
BSTAR
0.0019826
Loading maneuver chart data...
Computing Atmospheric mass density...

Documentation

Showing up to 5 results
|